Погода в Гурлене

Узбекистан     41°50′22″N   60°23′38″E
темп.,
°C
ветер,
м/с
пор.,
м/с
влажн.,
%
обл.,
%
осадки,
мм/ч
давл.,
гПа
погр.,
м
28 сентября, вт
вт2823:00+17юз22410 0.0 101612
02:00+16юз22420 0.0 101614
05:00+15зюз33430 0.0 101515
08:00+17юз23395 0.0 101684
11:00+22зюз33272 0.0 10151187
14:00+25з34260 0.0 10141874
17:00+25сз44271 0.0 10132020
20:00+21с33418 0.0 101534
29 сентября, ср
ср2923:00+19с473589 0.0 1016149
02:00+16всв34440 0.0 101660
05:00+15всв33490 0.0 101739
08:00+16в22460 0.0 101875
11:00+21ссз12300 0.0 1019912
14:00+24сз34264 0.0 10172065
17:00+24ссз44274 0.0 10172055
20:00+20ссв47375 0.0 1018129
30 сентября, чт
чт3023:00+17св48444 0.0 1019206
02:00+15всв59520 0.0 1020252
05:00+13всв59580 0.0 1020225
08:00+14всв58565 0.0 1021258
11:00+20всв55365 0.0 1021733
14:00+23св44290 0.0 10191386
17:00+23св65300 0.0 10181511
20:00+17св912430 0.0 1020516
1 октября, пт
пт123:00+15св813470 0.0 1021470
02:00+12св814480 0.0 1021463
05:00+11св8134565 0.0 1021454
08:00+12св61142100 0.0 1023448
11:00+14всв7938100 0.1 1023631
14:00+18ссв772994 0.0 10231109
17:00+15ссв8837100 0.0 1023813
20:00+11ссв696139 0.0 1025402
2 октября, сб
сб223:00+12ссв484872 0.0 1026391
02:00+13ссв5938100 0.0 1025571
05:00+13св6933100 0.0 1026566
08:00+12св61034100 0.0 1027500
11:00+15св67275 0.0 10281087
14:00+17св662116 0.0 10271511
17:00+17ссв661945 0.0 10271582
20:00+13ссв5102611 0.0 1028273